Regional Weather Roundup
Issued by NWS

Home | Current Version | Previous Version | Text Only | Print | Product List | Glossary Off
Versions: 1 2 3 4 5 6 7 8 9 10 11 12 13 14 15 16 17 18 19 20 21 22 23 24 25 26 27 28 29 30 31 32 33 34 35 36 37 38 39 40 41 42 43 44 45 46 47 48 49 50

899
ASUS44 KMEG 130400
RWRTN
TENNESSEE HOURLY STATE WEATHER ROUNDUP
NATIONAL WEATHER SERVICE MEMPHIS TN
1000 PM CST FRI FEB 12 2016

TNZ002-004-019-021-049-052-054-088>092-130500-
WEST TENNESSEE

CITY           SKY/WX    TMP DP  RH WIND       PRES   REMARKS
MEMPHIS INTL   CLEAR     41  26  55 NE8       30.40R
NWS MEMPHIS      N/A     38 N/A N/A MISG        N/A
JACKSON        CLEAR     33  24  69 N10       30.41R WCI  25
DYERSBURG      CLEAR     34  23  64 N13G20    30.45R WCI  25
UNION CITY     CLEAR     28  21  74 N14       30.42R WCI  17
PARIS          CLEAR     27  18  69 N9        30.41R WCI  17
LEXINGTON      CLEAR     30  21  69 N5        30.37R WCI  25
$$

TNZ008-025-027-028-033-062-065-066-130500-
NORTH MIDDLE TENNESSEE

CITY           SKY/WX    TMP DP  RH WIND       PRES   REMARKS
NASHVILLE      MOCLDY    32  19  58 NW9       30.37R WCI  24
CLARKSVILLE    MOCLDY    29  17  61 NW14      30.40R WCI  18
COOKEVILLE     MOCLDY    30  23  74 N8        30.29R WCI  23
CROSSVILLE     CLOUDY    28  18  66 NW16G25   30.24R WCI  16
$$

TNZ061-075-076-078-094-096-097-130500-
SOUTH MIDDLE TENNESSEE

CITY           SKY/WX    TMP DP  RH WIND       PRES   REMARKS
TULLAHOMA      MOCLDY    30  25  80 N12       30.31S WCI  21
WINCHESTER     CLEAR     30  25  80 N7        30.31S WCI  23
MCMINNVILLE    CLOUDY    30  23  74 NW8       30.31R WCI  23
COLUMBIA       CLEAR     34  25  69 N3        30.34R
SHELBYVILLE    CLOUDY    34  25  69 N15       30.34S WCI  24
$$

TNZ017-018-042-046-047-130500-
NORTHEAST TENNESSEE

CITY           SKY/WX    TMP DP  RH WIND       PRES   REMARKS
TRI CITIES     LGT SNOW  29  23  78 W14       30.15R WCI  18
$$

TNZ012-013-036-069-073-074-130500-
CENTRAL EAST TENNESSEE

CITY           SKY/WX    TMP DP  RH WIND       PRES   REMARKS
KNOXVILLE      CLOUDY    33  23  66 W13       30.25R WCI  24
OAK RIDGE      CLOUDY    33  20  58 W8G18     30.28R WCI  26
GATLINBURG     CLOUDY    32  23  69 W9        30.22S WCI  24
$$

TNZ083-085-099-130500-
SOUTHEAST TENNESSEE

CITY           SKY/WX    TMP DP  RH WIND       PRES   REMARKS
CHATTANOOGA    PTCLDY    37  24  59 N20G25    30.28R WCI  27
$$

SKY/WX REPORTED AS FAIR MEANS FEW OR NO CLOUDS BELOW
12 THOUSAND FEET.





USA.gov is the U.S. government's official web portal to all federal, state and local government web resources and services.